Simultaneous Nadir Overpasses (SNOs) Predictions

Prediction of SNOs between GOES-14 and NPP Satellite Orbit:

Table of predicted SNOs for the next 14.0 days since TLE Epoch: 10/10/2020
Index Date Time (GOES-14) GOES-14 Lat,Lon NPP Lat,Lon Distance(km) Time Diff (sec)
1 10/10/2020 20:17:20 -0.24,-104.35 0.11,-102.72 185.60 80
2 10/12/2020 08:39:08 0.21,-104.38 1.01,-108.01 412.76 80
3 10/13/2020 08:17:43 0.22,-104.37 0.02,-103.47 102.28 80
4 10/15/2020 20:23:34 -0.21,-104.32 -0.18,-104.25 8.31 80
5 10/18/2020 08:26:35 0.19,-104.37 0.36,-104.98 71.04 80
6 10/19/2020 08:05:10 0.21,-104.35 -0.63,-100.45 444.11 80
7 10/20/2020 20:27:06 -0.18,-104.28 -0.50,-105.76 168.98 80
8 10/21/2020 20:11:01 -0.19,-104.28 0.49,-101.23 348.00 80
9 10/23/2020 08:32:49 0.16,-104.36 0.63,-106.51 245.29 80
